contact:dominique.lefevre@mio.osupytheas.fr, maurice.libes@osupytheas.fr
Project:EMSO Ligure-ouest http://www.emso-fr.org/EMSO-France
Sensor Aquadopp, line 13 Serial AQD14315 
DOI : "https://doi.org/10.17882/74513; https://doi.org/10.17882/83244" 
Title:EMSO Ligure Ouest : Data ligne ALBATROSS capteur AQUADOPP - deploiement 2021
Id,Date,Profondeur,Latitude,Longitude,X_East,Y_North,Z_Up,Amplitude_X,Amplitude_Y,Amplitude_Z,Batterie,SoundSpeed,Heading,Pitch,Roll,Pressure,Temperature,Speed,Direction
, , m, degrees North, degrees East, m.s-1, m.s-1,m.s-1, 1, 1, 1, Volt, m.s-1, degree, degree, degree, dbar, degree_C, m.s-1, degree
07,2022-11-02T23:30:00,1500.0,42.79,6.0312,0.053,0.013,-0.01,38.0,37.0,39.0,12.7,1504.0,45.2,0.0,1.1,1475.03,13.1,0.054,76.2
07,2022-11-03T00:00:00,1500.0,42.79,6.0312,0.06,0.019,0.014,38.0,38.0,38.0,12.7,1504.0,37.9,-0.1,1.0,1475.008,13.1,0.062,72.4
07,2022-11-03T00:30:00,1500.0,42.79,6.0312,0.044,0.014,-0.002,38.0,39.0,37.0,12.7,1504.0,39.3,0.2,1.0,1475.028,13.1,0.046,72.4
07,2022-11-03T01:00:00,1500.0,42.79,6.0312,0.053,0.019,0.011,39.0,39.0,37.0,12.7,1504.0,36.9,-0.1,0.8,1475.033,13.09,0.056,70.3
07,2022-11-03T01:30:00,1500.0,42.79,6.0312,0.047,0.028,0.001,36.0,39.0,36.0,12.7,1504.0,35.0,-0.3,0.8,1475.042,13.09,0.054,59.2
07,2022-11-03T02:00:00,1500.0,42.79,6.0312,0.055,0.01,0.001,36.0,37.0,37.0,12.7,1504.0,39.0,-0.1,0.8,1475.051,13.09,0.055,79.7
07,2022-11-03T02:30:00,1500.0,42.79,6.0312,0.052,0.01,0.013,39.0,37.0,38.0,12.7,1504.0,42.0,-0.2,0.8,1475.087,13.09,0.052,79.1
07,2022-11-03T03:00:00,1500.0,42.79,6.0312,0.045,0.003,0.009,38.0,38.0,37.0,12.7,1504.0,35.8,0.1,1.0,1475.082,13.09,0.045,86.2
07,2022-11-03T03:30:00,1500.0,42.79,6.0312,0.048,0.018,0.004,37.0,38.0,38.0,12.7,1504.0,35.8,-0.4,1.0,1475.066,13.09,0.051,69.4
07,2022-11-03T04:00:00,1500.0,42.79,6.0312,0.055,0.021,0.008,38.0,38.0,38.0,12.7,1504.0,42.5,-0.3,0.8,1475.004,13.09,0.058,69.1
07,2022-11-03T04:30:00,1500.0,42.79,6.0312,0.054,0.014,0.004,39.0,38.0,38.0,12.7,1504.0,40.2,0.0,0.7,1475.058,13.09,0.055,75.5
07,2022-11-03T05:00:00,1500.0,42.79,6.0312,0.05,0.019,0.009,38.0,39.0,38.0,12.7,1504.0,41.6,-0.1,1.0,1475.059,13.1,0.053,69.2
07,2022-11-03T05:30:00,1500.0,42.79,6.0312,0.029,0.013,-0.004,38.0,39.0,37.0,12.7,1504.0,41.7,0.0,0.8,1475.053,13.1,0.031,65.9
07,2022-11-03T06:00:00,1500.0,42.79,6.0312,0.05,0.008,0.008,37.0,39.0,37.0,12.7,1504.0,39.4,0.1,0.8,1475.01,13.1,0.05,80.9
07,2022-11-03T06:30:00,1500.0,42.79,6.0312,0.046,0.013,-0.006,37.0,37.0,38.0,12.7,1504.0,40.4,-0.3,1.2,1475.048,13.1,0.047,74.2
07,2022-11-03T07:00:00,1500.0,42.79,6.0312,0.046,0.019,-0.006,39.0,38.0,38.0,12.7,1504.0,42.8,0.0,0.9,1475.024,13.09,0.049,67.6
07,2022-11-03T07:30:00,1500.0,42.79,6.0312,0.042,0.01,-0.006,38.0,38.0,38.0,12.7,1504.0,42.3,-0.2,1.0,1474.995,13.09,0.043,76.6
07,2022-11-03T08:00:00,1500.0,42.79,6.0312,0.038,0.022,-0.002,37.0,38.0,38.0,12.7,1504.0,43.2,-0.3,0.8,1475.03,13.1,0.043,59.9
07,2022-11-03T08:30:00,1500.0,42.79,6.0312,0.056,0.016,0.003,38.0,39.0,37.0,12.7,1504.0,43.5,0.1,1.0,1475.037,13.1,0.058,74.1
07,2022-11-03T09:00:00,1500.0,42.79,6.0312,0.053,0.024,0.002,37.0,39.0,38.0,12.7,1504.0,45.5,-0.2,0.9,1475.022,13.1,0.058,65.6
07,2022-11-03T09:30:00,1500.0,42.79,6.0312,0.061,0.017,0.005,39.0,37.0,39.0,12.7,1504.0,44.1,-0.2,1.0,1474.998,13.1,0.063,74.4
07,2022-11-03T10:00:00,1500.0,42.79,6.0312,0.059,0.017,0.014,37.0,39.0,39.0,12.7,1504.0,49.3,0.1,1.0,1475.022,13.1,0.061,73.9
07,2022-11-03T10:30:00,1500.0,42.79,6.0312,0.053,0.012,0.029,37.0,39.0,37.0,12.7,1504.0,44.5,0.1,0.9,1475.005,13.1,0.054,77.2
07,2022-11-03T11:00:00,1500.0,42.79,6.0312,0.041,0.023,0.006,40.0,39.0,39.0,12.7,1504.0,46.9,0.0,0.9,1475.045,13.1,0.047,60.7
07,2022-11-03T11:30:00,1500.0,42.79,6.0312,0.062,0.01,0.014,38.0,39.0,37.0,12.7,1504.0,48.7,-0.4,0.9,1475.054,13.1,0.062,80.8
07,2022-11-03T12:00:00,1500.0,42.79,6.0312,0.063,0.005,0.023,36.0,37.0,40.0,12.7,1504.0,48.1,-0.3,0.9,1475.025,13.1,0.063,85.5
07,2022-11-03T12:30:00,1500.0,42.79,6.0312,0.061,0.009,0.012,39.0,40.0,37.0,12.7,1504.0,53.0,0.2,0.8,1475.064,13.1,0.061,81.6
07,2022-11-03T13:00:00,1500.0,42.79,6.0312,0.056,0.017,0.003,37.0,39.0,39.0,12.7,1504.0,45.9,0.2,0.8,1475.088,13.1,0.058,73.1
07,2022-11-03T13:30:00,1500.0,42.79,6.0312,0.053,0.005,0.001,37.0,40.0,37.0,12.7,1504.0,47.3,0.0,1.1,1475.092,13.1,0.053,84.6
07,2022-11-03T14:00:00,1500.0,42.79,6.0312,0.051,0.001,0.001,38.0,37.0,36.0,12.7,1504.0,49.6,-0.3,0.8,1475.115,13.1,0.051,88.9
07,2022-11-03T14:30:00,1500.0,42.79,6.0312,0.046,0.01,0.01,37.0,38.0,37.0,12.7,1504.0,45.4,-0.3,0.8,1475.174,13.1,0.047,77.7
07,2022-11-03T15:00:00,1500.0,42.79,6.0312,0.06,0.003,0.011,38.0,38.0,38.0,12.7,1504.0,50.2,-0.3,0.9,1475.153,13.1,0.06,87.1
07,2022-11-03T15:30:00,1500.0,42.79,6.0312,0.046,0.013,0.014,37.0,38.0,37.0,12.7,1504.0,40.1,0.3,0.8,1475.163,13.1,0.047,74.2
07,2022-11-03T16:00:00,1500.0,42.79,6.0312,0.049,0.009,-0.01,38.0,39.0,37.0,12.7,1504.0,44.6,0.0,0.8,1475.134,13.1,0.049,79.6
07,2022-11-03T16:30:00,1500.0,42.79,6.0312,0.053,0.013,-0.006,39.0,39.0,40.0,12.7,1504.0,49.1,-0.4,0.7,1475.162,13.1,0.054,76.2
07,2022-11-03T17:00:00,1500.0,42.79,6.0312,0.049,-0.002,0.003,43.0,42.0,40.0,12.7,1504.0,43.0,-0.1,0.7,1475.14,13.1,0.049,92.3
07,2022-11-03T17:30:00,1500.0,42.79,6.0312,0.041,0.013,0.001,42.0,41.0,43.0,12.7,1504.0,44.5,0.0,1.1,1475.134,13.1,0.043,72.4
07,2022-11-03T18:00:00,1500.0,42.79,6.0312,0.048,0.016,0.011,40.0,41.0,42.0,12.7,1504.0,44.0,0.1,1.0,1475.145,13.1,0.05,71.6
07,2022-11-03T18:30:00,1500.0,42.79,6.0312,0.054,0.004,0.018,41.0,42.0,41.0,12.7,1504.0,44.8,0.2,0.7,1475.066,13.1,0.054,85.8
07,2022-11-03T19:00:00,1500.0,42.79,6.0312,0.036,0.009,0.015,42.0,44.0,42.0,12.7,1504.0,46.5,-0.1,0.9,1475.075,13.1,0.037,76.0
07,2022-11-03T19:30:00,1500.0,42.79,6.0312,0.053,0.008,0.008,43.0,44.0,42.0,12.7,1504.0,46.5,0.0,0.8,1475.09,13.1,0.053,81.4
07,2022-11-03T20:00:00,1500.0,42.79,6.0312,0.046,0.001,0.01,44.0,43.0,44.0,12.7,1504.0,46.7,-0.2,0.8,1475.057,13.1,0.046,88.8
07,2022-11-03T20:30:00,1500.0,42.79,6.0312,0.054,0.0,0.0,44.0,46.0,44.0,12.7,1504.0,38.2,-0.2,0.8,1475.032,13.1,0.053,90.0
07,2022-11-03T21:00:00,1500.0,42.79,6.0312,0.042,0.016,0.009,44.0,45.0,45.0,12.7,1504.0,40.6,0.0,0.8,1475.008,13.1,0.044,69.1
07,2022-11-03T21:30:00,1500.0,42.79,6.0312,0.047,0.012,0.008,45.0,45.0,44.0,12.7,1504.0,44.8,-0.3,0.9,1474.963,13.1,0.048,75.7
07,2022-11-03T22:00:00,1500.0,42.79,6.0312,0.036,0.024,0.007,44.0,46.0,44.0,12.7,1504.0,38.5,-0.1,0.7,1474.946,13.1,0.043,56.3
07,2022-11-03T22:30:00,1500.0,42.79,6.0312,0.034,0.024,0.001,41.0,45.0,42.0,12.7,1504.0,35.3,0.3,1.0,1474.976,13.1,0.041,54.8
07,2022-11-03T23:00:00,1500.0,42.79,6.0312,0.047,0.019,-0.003,42.0,44.0,43.0,12.7,1504.0,42.8,-0.2,0.8,1474.953,13.1,0.05,68.0
